Regional Weather Roundup
Issued by NWS Albany, NY

Home | Current Version | Previous Version | Graphics & Text | Print | Product List | Glossary Off
Versions: 1 2 3 4 5 6 7 8 9 10 11 12 13 14 15 16 17 18 19 20 21 22 23 24 25 26 27 28 29 30 31 32 33 34 35 36 37 38 39 40 41 42 43 44 45 46 47 48 49 50

603
ASUS41 KALY 212310
RWRALY

NEW YORK STATE HOURLY WEATHER ROUNDUP
NATIONAL WEATHER SERVICE ALBANY NY
600 PM EST TUE FEB 21 2017

NOTE: "FAIR" INDICATES FEW OR NO CLOUDS BELOW 12,000 FEET WITH NO
SIGNIFICANT WEATHER AND/OR NO OBSTRUCTIONS TO VISIBILITY.

NYZ032-033-038>043-046>054-057>066-NYZ062>081-082-084-220000-
EAST


CITY           SKY/WX    TMP DP  RH WIND       PRES   REMARKS
ALBANY         CLOUDY    43  21  41 S12G21    30.11R
GLENS FALLS    CLOUDY    42  20  41 SW8       30.11S
POUGHKEEPSIE   NOT AVBL
NEWBURGH       MOCLDY    43  28  56 S6        30.17S
NEW YORK CITY  NOT AVBL
CENTRAL PARK   CLOUDY    42  31  64 VRB3      30.23S
$$

NYZ005>009-017-018-044>046-055-056-220000-
CENTRAL


CITY           SKY/WX    TMP DP  RH WIND       PRES   REMARKS
FULTON         CLOUDY    46  22  38 SE5       30.00R
SYRACUSE       CLOUDY    47  22  37 S12G20    30.00R
ROME           CLOUDY    38  24  57 E8        30.07R WCI  32
ELMIRA         NOT AVBL
BINGHAMTON     NOT AVBL
$$

NYZ026>034-041>043-087-220000-
NORTH


CITY           SKY/WX    TMP DP  RH WIND       PRES   REMARKS
WATERTOWN      CLOUDY    45  24  43 VRB5      29.98R
FORT DRUM      NOT AVBL
OGDENSBURG     FAIR      42  23  46 SW5       29.99R
MASSENA        CLOUDY    34  24  67 CALM      30.00S
SARANAC LAKE   CLOUDY    40  17  39 W9        29.95R WCI  34
PLATTSBURGH    NOT AVBL
$$

NYZ001>004-010>016-019>021-085-220000-
WEST


CITY           SKY/WX    TMP DP  RH WIND       PRES   REMARKS
NIAGARA FALLS  LGT RAIN  49  41  74 SW10      29.95R
BUFFALO        LGT RAIN  46  40  79 SW8       29.94S
DUNKIRK        LGT RAIN  51  43  74 S10       29.94F
JAMESTOWN      CLOUDY    50  36  57 S8        29.98F
WELLSVILLE     CLOUDY    47  24  40 S9        30.00S
ROCHESTER      LGT RAIN  51  36  56 SW14      29.97R
PENN YAN       CLOUDY    48  22  35 S16G23    29.99S
$$

             KEY
       WCI = WIND CHILL INDEX
       VSB = VISIBILITY
       HX  = HEAT INDEX
$$




USA.gov is the U.S. government's official web portal to all federal, state and local government web resources and services.